Home   Weather   Atlantic City   Past weeks

Flag for USA Past Weather in Atlantic City, New Jersey, USA — Yesterday and Last 2 Weeks

Now
67 °F

Overcast.


Feels Like: 67 °F
Forecast: 64 / 71 °F
Wind: No wind

Location: Atlantic City International Airport

Current Time: Sep 27, 2016 at 6:24:00 PM

Latest Report: Sep 27, 2016 at 5:54 PM


Visibility: 10 mi

Pressure: 29.92 "Hg

Humidity: 81%

Dew Point: 61 °F

Location of Atlantic CityLocation

Past Weather in Atlantic City — Graph

°F

Atlantic City Temperature Yesterday

Maximum temperature yesterday: 72 °F (at 2:54 PM)
Minimum temperature yesterday: 48 °F (at 2:54 AM)
Average temperature yesterday: 63 °F

High & Low Weather Summary for the Past Weeks

 TemperatureHumidityPressure
High91 °F (Sep 14, 4:54 PM)97% (Sep 22, 5:54 AM)30.32 "Hg (Sep 22, 5:54 AM)
Low48 °F (Sep 25, 6:54 AM)30% (Sep 14, 4:54 PM)29.91 "Hg (Sep 27, 3:54 PM)
Average69 °F75%30.11 "Hg
* Reported Sep 12 4:54 PM — Sep 27 4:54 PM, Atlantic City, Weather by CustomWeather, © 2016

Note: Actual official high and low records may vary slightly from our data, if they occured in-between our weather recording intervals... More about our weather records

Advertising

Atlantic City Weather History for the Previous 24 Hours

Scroll right to see more
 ConditionsComfort  
Time TempWeatherWind HumidityBarometerVisibility
4:54 PM
Tue, Sep 27
68 °FOvercast.5 mph78%29.91 "Hg10 mi
3:54 PM67 °FOvercast.5 mph81%29.91 "Hg10 mi
2:54 PM68 °FOvercast.6 mph76%29.92 "Hg10 mi
1:54 PM66 °FMostly cloudy.6 mph81%29.93 "Hg10 mi
12:54 PM66 °FLight rain. Mostly cloudy.6 mph78%29.95 "Hg10 mi
11:54 AM67 °FMostly cloudy.7 mph87%29.96 "Hg10 mi
10:54 AM69 °FBroken clouds.9 mph84%29.96 "Hg10 mi
10:04 AM67 °FMostly cloudy.8 mph90%29.97 "Hg9 mi
9:54 AM67 °FOvercast.6 mph90%29.96 "Hg9 mi
8:54 AM67 °FMostly cloudy.7 mph93%29.95 "Hg10 mi
7:54 AM67 °FLight rain. More clouds than sun.3 mph93%29.94 "Hg8 mi
6:54 AM68 °FLight rain. Fog.6 mph93%29.93 "Hg5 mi
5:54 AM69 °FPartly cloudy.6 mph90%29.91 "Hg10 mi
4:54 AM69 °FLight rain. Fog.7 mph93%29.92 "Hg3 mi
3:54 AM69 °FFog.12 mph90%29.93 "Hg6 mi
2:54 AM71 °FOvercast.10 mph84%29.94 "Hg10 mi
1:54 AM71 °FMostly cloudy.9 mph87%29.95 "Hg10 mi
12:54 AM71 °FOvercast.9 mph81%29.95 "Hg10 mi
11:54 PM
Mon, Sep 26
71 °FOvercast.8 mph78%29.99 "Hg10 mi
10:54 PM72 °FMostly cloudy.8 mph71%30.02 "Hg10 mi
9:54 PM71 °FOvercast.10 mph71%30.04 "Hg10 mi
8:54 PM71 °FOvercast.8 mph66%30.06 "Hg10 mi
7:54 PM70 °FOvercast.8 mph68%30.05 "Hg10 mi
6:54 PM69 °FOvercast.9 mph66%30.06 "Hg10 mi
Weather by CustomWeather, © 2016

See weather overviewHow to use our weather pages